Tracking 30995 objects as of 5-Jul-2025
HD Live streaming from Space Station
objects crossing your sky now

COSMOS 2583

Track COSMOS 2583 now!
10-day predictions


NORAD ID: 62904
Int'l Code: 2025-026C
Perigee: 585.3 km
Apogee: 601.9 km
Inclination: 82.0 °
Period: 96.4 minutes
Semi major axis: 6964 km
RCS: Unknown
Launch date: February 5, 2025
Source: Commonwealth of Independent States (former USSR) (CIS)
Launch site: PLESETSK MISSILE AND SPACE COMPLEX (PKMTR)
Your satellite tracking list
Your tracking list is empty




NASA's NSSDC Master Catalog

Two Line Element Set (TLE):
1 62904U 25026C   25186.70876094  .00001737  00000-0  16187-3 0  9993
2 62904  81.9958  67.6622 0011877 119.4404 240.8002 14.93684329 22457
Source of the keplerian elements: AFSPC